User: anonymous   Login
Location: Norwich
(52.6280°N, 1.3030°E)
Time: 22:46:59
(UTC+01:00)
Language:

APEX - Orbit

View from above orbital plane
View from above orbital plane
View from above satellite
View from above satellite

Ground track
Ground track

The orbit data is extracted from the following two-line orbital elements,

1 23191U 94046A   15208.82941640  .00017596  00000-0  66188-3 0  9999
2 23191 069.9302 001.8038 0670810 116.1958 354.5720 14.21046409 17791
Epoch (UTC): 27 July 2015 19:54:21
Eccentricity: 0.0670810
inclination: 69.9302°
perigee height: 339 km
apogee height: 1305 km
right ascension of ascending node: 1.8038°
argument of perigee: 116.1958°
revolutions per day: 14.21046409
mean anomaly at epoch: 354.5720°
orbit number at epoch: 1779

The dashed part of the orbit path shows where the satellite is in the earth's shadow,  

DLR